UmKA 1 (RS40S)
1 57172U 23091G   26137.82383411  .00004307  00000-0  20032-3 0  9990
2 57172  97.5067 196.6431 0011897 219.3540 140.6832 15.20439751159396
CubeBel-2 (EU11S)
1 57175U 23091K   26137.81282983  .00008044  00000-0  29344-3 0  9991
2 57175  97.5066 200.7741 0009346 213.6399 146.4248 15.28382260159669
RS-38S
1 57189U 23091Z   26137.84462727  .00011051  00000-0  32761-3 0  9994
2 57189  97.5105 206.7442 0008145 168.8696 191.2728 15.34986339160037
SONATE-2
1 59112U 24043Q   26137.36387128  .00024211  00000-0  34383-3 0  9992
2 59112  97.5505 285.9332 0005792 312.9473  47.1295 15.56397763123090
GRBBeta
1 60237U 24128C   26137.48886597  .00002731  00000-0  19526-3 0  9998
2 60237  61.9901 323.9502 0044813 128.3151 232.1985 15.06365563101643
Curium One
1 60242U 24128H   26137.75422186  .00006188  00000-0  36325-3 0  9990
2 60242  61.9787 313.5220 0044220 124.9729 235.5531 15.11982470101853
ROBUSTA-3A
1 60243U 24128J   26137.76843138  .00005653  00000-0  34027-3 0  9999
2 60243  61.9866 315.7760 0045493 122.3077 238.2437 15.11156902101821
CatSat
1 60246U 24125J   26137.86595579  .00036852  00000-0  54013-3 0  9995
2 60246  97.2109 350.0510 0021123 294.2054  65.6993 15.55205116102672
HYPERVIEW-1G (RS66S)
1 61772U 24199AP  26137.82554177  .00078393  00000-0  68569-3 0  9993
2 61772  97.2933  16.1796 0006561  49.7117 310.4717 15.68648635129901
AO-123
1 61781U 24199AY  26137.79559102  .00005552  00000-0  16425-3 0  9993
2 61781  97.3036   6.7452 0015637  62.2192 298.0635 15.35194816129267
JINJUSat 1B
1 63210U 25052A   26137.66271975  .00010419  00000-0  33452-3 0  9993
2 63210  97.4042  34.3963 0003547 157.1135 203.0266 15.32482506 65422
NUSHSAT 1
1 63211U 25052B   26137.23129772  .00013807  00000-0  41276-3 0  9991
2 63211  97.4023  34.4296 0003211 156.3578 203.7813 15.34686812 65391
TEVEL2-4
1 63213U 25052D   26137.52396439  .00011668  00000-0  36305-3 0  9991
2 63213  97.3942  33.8870 0002249 162.3715 197.7605 15.33461581 65410
TEVEL2-5
1 63214U 25052E   26137.21488313  .00012564  00000-0  39270-3 0  9991
2 63214  97.3939  33.5344 0002122 161.7812 198.3506 15.33297446 65369
TEVEL2-6
1 63215U 25052F   26137.22646216  .00012073  00000-0  37792-3 0  9993
2 63215  97.3945  33.5304 0002227 164.0239 196.1074 15.33260092 65361
TEVEL2-1
1 63217U 25052H   26137.70216278  .00010606  00000-0  33739-3 0  9996
2 63217  97.3919  33.6655 0001775 176.5909 183.5346 15.32779437 65429
TEVEL2-3
1 63218U 25052J   26137.24086430  .00012149  00000-0  38559-3 0  9990
2 63218  97.3919  33.2232 0001658 179.2833 180.8412 15.32816953 65354
TEVEL2-2
1 63219U 25052K   26137.44149063  .00011553  00000-0  36724-3 0  9995
2 63219  97.3916  33.4071 0001665 179.4731 180.6513 15.32779336 65388
TEVEL2-9
1 63237U 25052AD  26137.64158752  .00009894  00000-0  33381-3 0  9993
2 63237  97.3976  33.0463 0004207 239.6364 120.4461 15.30898061 65357
TEVEL2-7
1 63238U 25052AE  26137.67689509  .00009250  00000-0  31487-3 0  9997
2 63238  97.3980  33.0096 0004345 240.1936 119.8873 15.30628408 65355
TEVEL2-8
1 63239U 25052AF  26137.68481205  .00009067  00000-0  30887-3 0  9991
2 63239  97.3978  32.9954 0004253 241.2273 118.8541 15.30610503 65356
HYDRA-W
1 63490U 25052BL  26113.93882235  .05662091  24406-5  29537-2 0  9997
2 63490  97.3690  18.2798 0008685 203.5899 156.4993 16.20186780 62336
HADES-ICM (SO-125)
1 63492U 25052BN  26137.47982147  .01474831  13364-2  23249-2 0  9998
2 63492  97.3743  42.0398 0010719 182.4945 177.6284 16.04110124 65956
SPIRONE
1 66657U 25274H   26137.77027764  .00001217  00000-0  12114-3 0  9992
2 66657  97.7480  67.5004 0013624 112.3693 247.8972 14.93409062 25688
K-HERO
1 66660U 25274L   26137.51550150  .00000822  00000-0  82625-4 0  9994
2 66660  97.7487  67.3877 0015396 117.5252 242.7534 14.93833021 25652
SNUGLITE-III DURI
1 66661U 25274M   26137.77216718  .00000937  00000-0  93358-4 0  9994
2 66661  97.7485  67.6603 0016012 117.8259 242.4586 14.93887639 25699
SilverSat
1 66909U 98067XV  26113.44966717  .07226154  12288-4  11979-2 0  9998
2 66909  51.6027 190.0749 0007952 333.4666  26.5949 16.32457272 22308
SAKHACUBE-CHOLBON
1 67290U 25313AU  26137.83748692  .00007206  00000-0  29740-3 0  9994
2 67290  97.3942 213.2641 0011021 103.4354 256.8113 15.24283514 21356
RS95S (QMR-KWT-2)
1 67291U 25313AV  26137.19504736  .00009742  00000-0  38770-3 0  9993
2 67291  97.3945 212.7474 0010642 105.0837 255.1579 15.25412888 21267
Ten-Koh2
1 68261U 25241B   26137.32067656  .00004861  00000-0  21483-3 0  9991
2 68261  51.6563 106.4890 0006428  48.2029 311.9497 15.23469234 10200
JACK-002
1 68417U 26067B   26137.86273542  .00004432  00000-0  21513-3 0  9991
2 68417  97.4554  96.8420 0003475  57.8818 302.2753 15.18982176  7341
DISCO 2
1 68431U 26067R   26137.67894633  .00004515  00000-0  22161-3 0  9998
2 68431  97.4590  96.6521 0004409  96.3378 263.8358 15.18586249  7315
HADES-SA (SpinnyONE)
1 68446U 26067AG  26137.38204569  .00010943  00000-0  54152-3 0  9992
2 68446  97.4397  96.1706 0007546 161.9860 198.1643 15.17949251  7251
PARUS-6U1
1 68456U 26067AS  26137.85292516  .00003698  00000-0  18953-3 0  9992
2 68456  97.4539  96.6957 0006380 151.3804 208.7780 15.17171631  7337
SAL-E
1 68458U 26067AU  26137.85190633  .00005226  00000-0  26555-3 0  9997
2 68458  97.4467  96.6522 0006355 159.5179 200.6310 15.17289694  7333
FSI-SAT 2
1 68792U 26088A   26137.40398876  .00002569  00000-0  17741-3 0  9995
2 68792  97.5035 287.4499 0013882 206.6488 153.4028 15.06559300  3653
OrigamiSat 2
1 68795U 26088D   26137.31403000  .00002110  00000-0  14082-3 0  9991
2 68795  97.5035 287.4188 0015845 181.2190 178.9003 15.08009233  3641
ARICA 2
1 68796U 26088E   26137.37856685  .00002902  00000-0  19146-3 0  9994
2 68796  97.5019 287.4797 0015877 179.4560 180.6688 15.08142507  3657
WASEDA-SAT-ZERO-II
1 68797U 26088F   26137.37749979  .00004364  00000-0  28504-3 0  9994
2 68797  97.5018 287.4810 0015910 179.5075 180.6172 15.08243284  3655
MANGARO-II-Piscus
1 68798U 26088G   26136.84163438  .00002918  00000-0  19025-3 0  9997
2 68798  97.5027 286.9726 0019180 184.7538 175.3511 15.08523623  3578
IO-86
1 40931U          25360.30710720  .00000000  00000-0  12800-3 0    00
2 40931   6.0006 332.5373 0012733 338.8432   8.1437 14.79075515    01
LILIUM-4                
1 71922C 26067AC  26089.50133053 -.00014632  00000+0 -74472-3 0    04
2 71922  97.4497  49.1617 0004341   5.9603 355.7042 15.16896692    16
